Hourly Data Report for November 05, 2021

MOUNT FOREST (AUT)
ONTARIO
Current Station Operator: ECCC - MSC

43°59'00.000" N
80°45'00.000" W
414.50 m
6145504
71631
WLS

Download Data

Hourly Data (November 2021)
Hourly Data Report for November 5, 2021
TIME
LST
Temp Definition
°C
Dew Point Definition
°C
Rel Hum Definition
%
Precip. Amount Definition
mm

Wind Dir Definition
10's deg

Wind Spd Definition
km/h
Visibility Definition
km
Stn Press Definition
kPa
Hmdx Definition


Wind Chill Definition


Weather Definition


00:00 -1.4 -1.8 97 0.0 18 4   97.56   -3 LegendNANA
01:00 -1.1 -1.5 97 0.0 19 3   97.58   -2 LegendNANA
02:00 -1.3 -1.8 96 0.0 16 3   97.59   -2 LegendNANA
03:00 -0.9 -1.5 95 0.0 19 6   97.62   -3 LegendNANA
04:00 -0.4 -1.3 94 0.0 18 4   97.64   -2 LegendNANA
05:00 0.1 -1.4 90 0.0 21 5   97.67     LegendNANA
06:00 0.4 -1.4 87 0.0 19 6   97.69     LegendNANA
07:00 0.7 -1.4 86 0.0 19 7   97.74     LegendNANA
08:00 1.2 -1.4 83 0.0 19 6   97.81     LegendNANA
09:00 2.0 -1.0 80 0.0 20 9   97.85     LegendNANA
10:00 3.8 -0.7 73 0.0 22 10   97.88     LegendNANA
11:00 6.0 -3.7 50 0.0 24 13   97.90     LegendNANA
12:00 6.9 -3.9 46 0.0 23 17   97.86     LegendNANA
13:00 6.9 -3.9 46 0.0 24 15   97.81     LegendNANA
14:00 5.7 -2.0 58 0.0 27 11   97.77     LegendNANA
15:00 5.9 -2.4 55 0.0 25 11   97.73     LegendNANA
16:00 6.0 -2.3 55 0.0 23 12   97.73     LegendNANA
17:00 4.9 -2.1 60 0.0 22 8   97.72     LegendNANA
18:00 3.6 -2.2 66 0.0 20 7   97.72     LegendNANA
19:00 3.0 -2.5 67 0.0 18 8   97.71     LegendNANA
20:00 2.5 -2.5 70 0.0 19 7   97.68     LegendNANA
21:00 1.9 -2.6 72 0.0 18 8   97.65     LegendNANA
22:00 1.9 -2.9 70 0.0 18 8   97.64     LegendNANA
23:00 1.4 -2.6 75 0.0 19 7   97.64     LegendNANA

Notes on Data Quality.

Legend

  • E = Estimated
  • M = Missing
  • NA = Not Available*
  • [empty] = Indicates an unobserved value
Date modified: